Location: Campos dos Goitacazes
(21.7500°S, 41.3000°W)
Time: 13:26:15
(UTC-03:00)

Tiangong - Pass Details

Date: 25 June 2024
Orbit: 374 x 378 km, 41.5° (Epoch: 16 July)

Event Time Altitude Azimuth Distance (km) Brightness Sun altitude
Exits shadow 05:07:41 21° 179° (S) 920 -0.4 -17.2°
Maximum altitude 05:08:43 25° 147° (SSE) 805 -0.4 -17.0°
Drops below altitude 10° 05:11:25 10° 88° (E) 1,393 1.9 -16.4°
Sets 05:13:41 0° 74° (ENE) 2,242 3.6 -15.9°
